"Pseudo-MPEC" for C0DFQU5

Created 2022 Nov 29 19:22:03 UT using Find_Orb

Click here for an explanation of pseudo-MPECs

 
 Astrometry: 
     C0DFQU5* C2022 10 30)?1o!efW$Q7X'=\ingUSQ1mN0bxmepP]6;RksH_J_=+VSt%u*2LoV00
     C0DFQU5  C2022 10 30YT%A-L`#VCmqv_RIa7sG.YW;S\67H=-'q2IAstrometry$9/(oSuV00
     C0DFQU5  C2022 10 30g)ZsRB0%Cr^Tglkredacted;$]9AjA8WDqpSye`N,Cc%O_i/\;G6V00
     C0DFQU5  C2022 10 30)9[aQu\ApNR:EHGDhbMN+6.5OQD1mk!P_]762s1(GdvGfCE._r]kV00
     C0DFQU5 mC2022 10 30bEZ7vXCI$MbadRs7dU9(Q`nN+W4click$:Y@99hereXiqZ3t8`7yV00
     C0DFQU5 mC2022 10 30%iL-[/52o^;!;OY/byHU17l$^?7^x[dnhF$$2sMNWV-f-hMYSd8.V00
     C0DFQU5 mC2022 10 30IWEa/Z%#IK''8!C?OTv7tnDbBuO[3]^D]yS=$W@*^GB9DaCx7Zr`V00
     C0DFQU5 KC2022 10 31.36873 06 23 56.79 +36 30 28.4    ~AVAb 22.1 RoNEOCP291
     C0DFQU5 KC2022 10 31.38603 06 23 56.54 +36 30 33.2    ~AVAb 21.9 RoNEOCP291
     C0DFQU5 KC2022 10 31.40333 06 23 56.28 +36 30 37.8    ~AVAb 22.2 RoNEOCP291
     C0DFQU5 mC2022 11 26X4\t01/womforvRlOoK`jUy7Ql6854*oajMOL_717,Y38%bPWR_0V00
     C0DFQU5 mC2022 11 26i6Y)8nga/1i^]ExN05[isI[SO39_W)b6fT^Somd^,!]*Pnse7u8`V00
     C0DFQU5 mC2022 11 26mtnCaa\rjDc1explanationRGHo)`!^D_h8X-OSFjt^w[EZ.i$q1V00

Station data:
(291) LPL/Spacewatch II  (N31.961669 W111.599905)  US/Arizona.  Observers J.
   V. Scotti, R. S. McMillan. 1.8-m f/2.7 reflector + CCD.
(V00) Kitt Peak-Bok  (N31.963125 W111.600190)  US/Arizona.  Observers T. A.
   Pruyne, B. M. Africano, E. J. Christensen, G. A. Farneth, D. C. Fuls, A.
   R. Gibbs, A. D. Grauer, H. Gröller, J. A. Johnson, R. A. Kowalski, S. M.
   Larson, G. J. Leonard, D. Rankin, R. L. Seaman, F. C. Shelly, K. W.
   Wierzchoś. 2.25-m reflector + CCD.

Orbital elements:  C0DFQU5
   Perihelion 2024 Dec 7.25343 +/- 18.8 TT =  6:04:56 (JD 2460651.75343)
Epoch 2022 Nov 26.0 TT = JDT 2459909.5   Earth MOID: 0.7731   AutoNEOCP
M 214.00018564 +/- 3.8              (J2000 ecliptic)
n   0.19669806 +/- 0.000282         Peri.  213.53056 +/- 1.7
a   2.92821294 +/- 0.0028           Node    36.38974 +/- 0.20
e   0.3969935 +/- 0.00868           Incl.   15.23155 +/- 0.049
P   5.01                   H 16.3   G  0.15   U  7.8
q 1.76573132 +/- 0.0243    Q 4.09069457 +/- 0.0283
From 13 observations 2022 Oct. 30-Nov. 26; mean residual 0".16
Residuals in arcseconds: 
221030 V00  .28+  .09-    221030 V00  .27-  .02+    221126 V00  .08+  .08+    
221030 V00  .19+  .12+    221030 V00  .44-  .17+    221126 V00  .07-  .10+    
221030 V00  .27+  .14-    221031 291  .07+  .12-    221126 V00  .01-  .18-    
221030 V00  .06+  .05+    221031 291  .05+  .06+    
221030 V00  .17-  .10-    221031 291  .07-  .05+    

Ephemerides (geocentric):
Date (UTC) HH   RA             Dec           delta  r     elong  mag " sig PA
---- --------  ------------   ------------  ------ ------ -----  --- --------
2022 11 29 19  06 07 31.471   +38 31 09.75  3.0853 3.9810 151.6 22.2 1.20 164
2022 11 29 20  06 07 29.305   +38 31 18.12  3.0850 3.9809 151.7 22.2 1.22 164
2022 11 29 21  06 07 27.137   +38 31 26.48  3.0847 3.9809 151.7 22.2 1.24 163
2022 11 29 22  06 07 24.967   +38 31 34.83  3.0844 3.9808 151.8 22.2 1.26 163
2022 11 29 23  06 07 22.795   +38 31 43.18  3.0841 3.9808 151.8 22.2 1.27 163
2022 11 30 00  06 07 20.621   +38 31 51.51  3.0838 3.9807 151.8 22.2 1.29 163
2022 11 30 01  06 07 18.446   +38 31 59.84  3.0835 3.9806 151.9 22.2 1.31 163
2022 11 30 02  06 07 16.268   +38 32 08.15  3.0832 3.9806 151.9 22.2 1.32 163
2022 11 30 03  06 07 14.090   +38 32 16.46  3.0829 3.9805 152.0 22.2 1.34 163
2022 11 30 04  06 07 11.909   +38 32 24.76  3.0826 3.9805 152.0 22.2 1.36 163
2022 11 30 05  06 07 09.726   +38 32 33.05  3.0823 3.9804 152.0 22.2 1.38 163
2022 11 30 06  06 07 07.542   +38 32 41.33  3.0820 3.9804 152.1 22.2 1.40 163
2022 11 30 07  06 07 05.356   +38 32 49.60  3.0817 3.9803 152.1 22.2 1.41 163
2022 11 30 08  06 07 03.169   +38 32 57.87  3.0814 3.9803 152.2 22.2 1.43 163
2022 11 30 09  06 07 00.979   +38 33 06.12  3.0811 3.9802 152.2 22.2 1.45 163
2022 11 30 10  06 06 58.788   +38 33 14.36  3.0808 3.9802 152.2 22.2 1.47 162
2022 11 30 11  06 06 56.595   +38 33 22.60  3.0805 3.9801 152.3 22.2 1.48 162
2022 11 30 12  06 06 54.400   +38 33 30.82  3.0802 3.9801 152.3 22.2 1.50 162
2022 11 30 13  06 06 52.204   +38 33 39.04  3.0799 3.9800 152.4 22.2 1.52 162
2022 11 30 14  06 06 50.006   +38 33 47.25  3.0796 3.9800 152.4 22.2 1.54 162
2022 11 30 15  06 06 47.806   +38 33 55.45  3.0793 3.9799 152.4 22.2 1.56 162
2022 11 30 16  06 06 45.605   +38 34 03.64  3.0790 3.9799 152.5 22.2 1.57 162
2022 11 30 17  06 06 43.401   +38 34 11.82  3.0788 3.9798 152.5 22.2 1.59 162
2022 11 30 18  06 06 41.196   +38 34 19.99  3.0785 3.9798 152.6 22.2 1.61 162
2022 11 30 19  06 06 38.989   +38 34 28.15  3.0782 3.9797 152.6 22.2 1.63 162
2022 11 30 20  06 06 36.781   +38 34 36.30  3.0779 3.9797 152.6 22.2 1.65 162
2022 11 30 21  06 06 34.571   +38 34 44.44  3.0776 3.9796 152.7 22.2 1.67 162
2022 11 30 22  06 06 32.359   +38 34 52.58  3.0773 3.9796 152.7 22.2 1.69 162
2022 11 30 23  06 06 30.145   +38 35 00.70  3.0770 3.9795 152.8 22.2 1.70 161
2022 12 01 00  06 06 27.930   +38 35 08.82  3.0767 3.9794 152.8 22.2 1.72 161
2022 12 01 01  06 06 25.713   +38 35 16.92  3.0764 3.9794 152.8 22.2 1.74 161
2022 12 01 02  06 06 23.494   +38 35 25.02  3.0761 3.9793 152.9 22.2 1.76 161
2022 12 01 03  06 06 21.274   +38 35 33.11  3.0759 3.9793 152.9 22.2 1.78 161
2022 12 01 04  06 06 19.052   +38 35 41.18  3.0756 3.9792 153.0 22.2 1.80 161
2022 12 01 05  06 06 16.828   +38 35 49.25  3.0753 3.9792 153.0 22.2 1.82 161
2022 12 01 06  06 06 14.603   +38 35 57.31  3.0750 3.9791 153.0 22.2 1.84 161
2022 12 01 07  06 06 12.376   +38 36 05.36  3.0747 3.9791 153.1 22.2 1.86 161
2022 12 01 08  06 06 10.147   +38 36 13.40  3.0744 3.9790 153.1 22.2 1.87 161
2022 12 01 09  06 06 07.916   +38 36 21.43  3.0741 3.9790 153.2 22.2 1.89 161
2022 12 01 10  06 06 05.684   +38 36 29.45  3.0739 3.9789 153.2 22.2 1.91 161
2022 12 01 11  06 06 03.450   +38 36 37.46  3.0736 3.9789 153.2 22.2 1.93 161
2022 12 01 12  06 06 01.215   +38 36 45.46  3.0733 3.9788 153.3 22.2 1.95 161
2022 12 01 13  06 05 58.977   +38 36 53.46  3.0730 3.9788 153.3 22.2 1.97 160
2022 12 01 14  06 05 56.738   +38 37 01.44  3.0727 3.9787 153.3 22.2 1.99 160
2022 12 01 15  06 05 54.498   +38 37 09.41  3.0724 3.9787 153.4 22.2 2.01 160
2022 12 01 16  06 05 52.256   +38 37 17.38  3.0722 3.9786 153.4 22.2 2.03 160
2022 12 01 17  06 05 50.012   +38 37 25.33  3.0719 3.9786 153.5 22.2 2.05 160
2022 12 01 18  06 05 47.766   +38 37 33.28  3.0716 3.9785 153.5 22.2 2.07 160